Location: Unspecified
(43.4680°N, 87.1740°E)
Time: 21:03:26
(UTC+00:00)

Lacrosse 5 rocket - Pass Details

Date: 17 April 2021
Orbit: 460 x 634 km, 57.0° (Epoch: 11 May)

Event Time Altitude Azimuth Distance (km) Brightness Sun altitude
Rises 18:05:53 0° 316° (NW) 2,811 5.5 -35.8°
Reaches altitude 10° 18:08:20 10° 327° (NNW) 1,937 4.7 -35.8°
Enters shadow 18:09:11 15° 334° (NNW) 1,660 4.3 -35.8°
